Location: North Smoke Tower Site
(30.5430°N, 82.3390°W)
Time: 09:10:35
(UTC-04:00)

Cosmos 1980 Rocket - Visible Passes

Search period start: 26 July 2014 00:00
Search period end: 05 August 2014 00:00
Orbit: 829 x 851 km, 71.0° (Epoch: 25 July)

Date Brightness Start Highest point End Pass type
(mag) Time Alt. Az. Time Alt. Az. Time Alt. Az.
26 Jul 3.1 21:51:32 10° NNW 21:56:56 46° WSW 22:02:10 11° S visible
27 Jul 3.0 21:35:55 10° NNW 21:41:23 50° WSW 21:46:50 10° S visible
28 Jul 2.9 21:20:17 10° NNW 21:25:49 54° WSW 21:31:19 10° S visible
29 Jul 2.8 21:04:40 10° NNW 21:10:15 58° WSW 21:15:48 10° S visible
30 Jul 2.7 20:49:04 10° NNW 20:54:41 63° WSW 21:00:16 10° S visible
